Location: Sungai Laei
(2.6000°N, 113.7167°E)
Time: 10:57:12
(UTC+00:00)

Cosmos 1633 - Pass Details

Date: 22 May 2022
Orbit: 447 x 465 km, 82.5° (Epoch: 06 July)

Event Time Altitude Azimuth Distance (km) Brightness Sun altitude
Exits shadow 21:16:11 24° 224° (SW) 974 3.6 -14.4°
Maximum altitude 21:17:41 37° 274° (W) 720 3.0 -14.0°
Drops below altitude 10° 21:20:57 10° 343° (NNW) 1,599 5.3 -13.3°
Sets 21:23:07 0° 352° (N) 2,474 6.3 -12.8°
